Miscellaneous Local Product
Issued by NWS Hastings, NE

Home | Current Version | Previous Version | Graphics & Text | Print | Product List | Glossary On
Versions: 1 2 3 4 5 6 7 8 9 10 11 12 13 14 15 16 17 18 19 20 21 22 23 24 25 26 27 28 29 30 31 32 33 34 35 36 37 38 39 40 41 42 43 44 45 46 47 48 49 50
820
AXUS43 KGID 281002
MISGRI

GID CWA HOURLY WEATHER ROUNDUP
NATIONAL WEATHER SERVICE HASTINGS NE
500 AM CDT FRI APR 28 2017

NOTE: "FAIR" INDICATES FEW OR NO CLOUDS BELOW 12,000 FEET WITH NO
SIGNIFICANT WEATHER AND/OR OBSTRUCTIONS TO VISIBILITY.

...SOUTH CENTRAL NEBRASKA...

CITY           SKY/WX    TMP DP  RH WIND       PRES   REMARKS
GRAND ISLAND   RAIN      44  44 100 E13       29.68F FOG
HASTINGS       RAIN      46  44  93 E10       29.67S FOG
KEARNEY        CLOUDY    45  41  87 E15       29.66S
ORD            LGT RAIN  42  35  76 E14       29.71R
YORK           LGT RAIN  46  45  93 E13       29.70R
AURORA         LGT RAIN  45  44  94 E13       29.68S
LEXINGTON      RAIN      43  40  89 E10G16    29.64S
HOLDREGE       LGT RAIN  43  42  95 E15       29.62F
HEBRON         LGT RAIN  46  46  97 E12G22    29.65F

...NEBRASKA PANHANDLE...

CITY           SKY/WX    TMP DP  RH WIND       PRES   REMARKS
CHADRON        LGT RAIN  39  36  89 E9        29.69R WCI  33
ALLIANCE       LGT SNOW  33  32  96 E8        29.64S FOG     WCI  26
SCOTTSBLUFF    LGT RAIN  37  34  89 E16       29.62R WCI  28
SIDNEY         CLOUDY    36  35  96 SE8       29.61S WCI  30

...WESTERN AND NORTH CENTRAL NEBRASKA...

CITY           SKY/WX    TMP DP  RH WIND       PRES   REMARKS
VALENTINE      CLOUDY    40  29  64 E14       29.76R WCI  32
AINSWORTH      CLOUDY    38  33  82 E10       29.76R WCI  31
ONEILL         CLOUDY    37  32  82 NE17      29.77S WCI  27
BROKEN BOW     RAIN      42  40  92 E15       29.68R
IMPERIAL       LGT RAIN  40  38  93 NE18      29.59F WCI  31
NORTH PLATTE   RAIN      42  40  92 E8        29.65S
MCCOOK         LGT RAIN  43  43 100 E13       29.59R FOG

...EASTERN NEBRASKA...

CITY           SKY/WX    TMP DP  RH WIND       PRES   REMARKS
NORFOLK        CLOUDY    37  31  78 E13G21    29.77S WCI  29
SO SIOUX CITY  PTCLDY    32  28  85 SE6       29.84S WCI  26
TEKAMAH        CLOUDY    40  33  76 NE8       29.82S WCI  34
COLUMBUS       CLOUDY    43  34  70 E20G25    29.74F
ALBION         CLOUDY    43  33  68 E16G23    29.73S
OMAHA EPPLEY   CLOUDY    44  33  65 E16       29.78F
OFFUTT AFB     CLOUDY    46  35  66 NE14G21   29.75F
MILLARD        CLOUDY    47  37  66 E9G16     29.76F
LINCOLN        LGT RAIN  48  41  76 E12       29.74R
NEBRASKA CITY  LGT RAIN  46  40  79 E12       29.72F
BEATRICE       RAIN      48  47  94 E12       29.71R
FALLS CITY     LGT RAIN  49  47  93 E14       29.70F

...NORTHERN KANSAS...

CITY           SKY/WX    TMP DP  RH WIND       PRES   REMARKS
GOODLAND       CLEAR     36  34  92 W12       29.60R WCI  28
HILL CITY      LGT RAIN  46  46 100 E5        29.59S FOG
NORTON         LGT RAIN  45  41  87 E14       29.57F
PHILLIPSBURG   LGT RAIN  46  46 100 E15G21    29.60F
SMITH CENTER   RAIN      45  43  93 E21       29.60F
HAYS           CLOUDY    47  46  97 E5        29.58R
RUSSELL        CLOUDY    48  46  93 E10       29.55F
CONCORDIA      LGT RAIN  47  47 100 E15G25    29.63S
SALINA         CLOUDY    51  47  86 E9        29.59R
TOPEKA         RAIN      50  49  96 E12       29.67S FOG



USA.gov is the U.S. government's official web portal to all federal, state and local government web resources and services.